Regional Weather Roundup
Issued by NWS

Home | Current Version | Previous Version | Text Only | Print | Product List | Glossary On
Versions: 1 2 3 4 5 6 7 8 9 10 11 12 13 14 15 16 17 18 19 20 21 22 23 24 25 26 27 28 29 30 31 32 33 34 35 36 37 38 39 40 41 42 43 44 45 46 47 48 49 50
000
ASUS43 KLOT 062012
RWRIL

ILLINOIS REGIONAL WEATHER ROUNDUP
NATIONAL WEATHER SERVICE CHICAGO/ROMEOVILLE IL
300 PM CDT WED MAY 06 2015

NOTE: "FAIR" INDICATES FEW OR NO CLOUDS BELOW 12,000 FEET WITH NO
SIGNIFICANT WEATHER AND/OR OBSTRUCTIONS TO VISIBILITY.

* THESE STATIONS ARE NOT UNDER NWS QUALITY CONTROL. THEY ALSO MAY NOT
  REPORT WEATHER SUCH AS PRECIPITATION OR FOG.

ILZ001-002-007-009-015-016-024-062100-
NORTHWEST ILLINOIS

CITY           SKY/WX    TMP DP  RH WIND       PRES   REMARKS
MOLINE         MOSUNNY   83  52  34 S16G23    30.02F HX  82
STERLING*      MOSUNNY   81  57  44 S7        30.06F HX  81
SAVANNA*       MOSUNNY   82  59  46 SE15      30.04F HX  82
$$

ILZ003-004-008-010-011-017-018-062100-
NORTH CENTRAL ILLINOIS

CITY           SKY/WX    TMP DP  RH WIND       PRES   REMARKS
ROCKFORD       PTSUNNY   79  60  52 S8        30.09F HX  80
FREEPORT*      MOSUNNY   78  60  53 S15       30.10F HX  80
ROCHELLE*      PTSUNNY   78  60  54 S9G16     30.09F
DE KALB*       MOSUNNY   77  60  55 S7        30.10F
PERU*          MOSUNNY   81  51  34 S15       30.07F HX  80
$$

ILZ005-006-012>014-019>023-062100-
NORTHEAST ILLINOIS

CITY           SKY/WX    TMP DP  RH WIND       PRES   REMARKS
CHICAGO-OHARE  PTSUNNY   71  56  58 NE12      30.11F
CHICAGO-MIDWAY PTSUNNY   73  58  59 NE10      30.11F HAZE
AURORA         MOSUNNY   81  59  47 SE8G20    30.09F HX  81
LANSING*       MOSUNNY   80  55  42 SW7       30.11F HX  80
JOLIET*        MOSUNNY   84  61  45 SW6       30.09F HX  84
WAUKEGAN       PTSUNNY   55  52  89 NE12      30.14F
DUPAGE AIRPORT SUNNY     80  60  50 S6        30.09F HX  81
KANKAKEE*      MOSUNNY   83  61  47 S8        30.10F HX  84
WHEELING       SUNNY     64  54  69 NE10      30.14F
MORRIS*        MOSUNNY   83  55  38 S9        30.07F HX  82
ROMEOVILLE*    PTSUNNY   82  58  44 S9        30.09F HX  81
NORTHERLY ISL    N/A     52  51  97 MISG        N/A
$$

LMZ740>746-062100-
SOUTHERN LAKE MICHIGAN

STATION/POSITION SKY/WX   TEMP    WIND        PRES    VSBY  WAVE
                          AIR SEA DIR/SP/G                  HT/PER
                          (F)     (DEG/KT/KT) (MB)    (MI)  (FT/S)
HARRISON CRIB              46      10/  8/  9   N/A
BURNHAM HARBOR             51     350/  9/ 10   N/A
CALUMET HARBOR             55     350/  5/  9   N/A
BURNS HARBOR               58      70/  7/  9 1021.0F
MICHIGAN CITY              55      30/  8/  9   N/A
MICHIGAN CITY 6N           53 53   60/  8/ 10   N/A           1
ST. JOSEPH                 54 52   30/  8/  8   N/A           1
$$

ILZ025>027-034>036-040-047-049-050-058-095>099-062100-
WEST-CENTRAL ILLINOIS

CITY           SKY/WX    TMP DP  RH WIND       PRES   REMARKS
QUINCY         CLOUDY    79  55  43 S21G30    30.02F
GALESBURG*     MOSUNNY   81  54  39 S17       30.03F HX  80
MACOMB*        MOSUNNY   83  53  35 S17G25    30.05F HX  81
JACKSONVILLE*  MOSUNNY   87  51  29 S13G23    30.05F HX  84
PITTSFIELD*    MOSUNNY   83  52  34 S17G23    30.04F HX  82
$$

ILZ028>032-037-038-041>044-048-051>054-059>061-062100-
CENTRAL ILLINOIS

CITY           SKY/WX    TMP DP  RH WIND       PRES   REMARKS
PONTIAC        MOSUNNY   85  53  33 S17G24    30.09F HX  83
BLOOMINGTON    PTSUNNY   82  54  38 S13       30.09F HX  81
DECATUR        PTSUNNY   85  52  32 S15G25    30.08F HX  83
PEORIA         PTSUNNY   84  51  31 S17       30.05F HX  82
LACON*         PTSUNNY   83  51  32 SW15G24   30.05F HX  81
LINCOLN*       PTSUNNY   85  49  28 S14G20    30.04F HX  83
SPRINGFIELD    PTSUNNY   86  50  28 S20G30    30.06F HX  84
TAYLORVILLE    PTSUNNY   82  52  34 S14G22    30.08F HX  81
$$

ILZ033-039-045-046-055>057-062-063-062100-
EAST-CENTRAL ILLINOIS

CITY           SKY/WX    TMP DP  RH WIND       PRES   REMARKS
CHAMPAIGN      PTSUNNY   87  46  24 S14G25    30.09F HX  84
DANVILLE*      PTSUNNY   84  50  31 S10       30.09F HX  82
RANTOUL*       PTSUNNY   86  50  28 S9        30.09F HX  84
MATTOON        MOSUNNY   83  52  34 S12G18    30.09F HX  82
PARIS*         SUNNY     85  50  29 S12G20    30.12F HX  83
$$

ILZ079-100>102-062100-
SOUTHWEST ILLINOIS

CITY           SKY/WX    TMP DP  RH WIND       PRES   REMARKS
ALTON          MOSUNNY   84  52  32 S15G21    30.07F HX  82
BELLEVILLE     MOSUNNY   84  56  38 S9        30.06F HX  83
CAHOKIA*       MOSUNNY   87  53  31 S14G25    30.06F HX  85
SPARTA*        PTSUNNY   81  58  44 S12G18    30.09F HX  81
$$

ILZ064>066-069>071-074>076-080>082-084>086-088>090-092>094-062100-
SOUTH-CENTRAL ILLINOIS

CITY           SKY/WX    TMP DP  RH WIND       PRES   REMARKS
CARBONDALE     MOSUNNY   85  54  34 S9G20     30.09F HX  83
CAIRO*         MOSUNNY   86  56  35 SE12      30.09F HX  84
EFFINGHAM*     MOSUNNY   85  45  24 S8G18     30.11F HX  82
MARION         MOSUNNY   84  59  42 S12       30.10F HX  84
MT. VERNON     MOSUNNY  N/A N/A N/A SE8       30.10F
CENTRALIA*     SUNNY     86  50  28 S10G28    30.09F HX  84
SALEM*         MOSUNNY   87  46  24 SW14      30.10F HX  84
METROPOLIS*    MOSUNNY   84  56  38 E7        30.09F HX  83
$$

ILZ067-068-072-073-078-083-087-091-062100-
SOUTHEAST ILLINOIS

CITY           SKY/WX    TMP DP  RH WIND       PRES   REMARKS
LAWRENCEVILLE  MOSUNNY   86  54  33 S12G20    30.11F HX  84
FLORA*         MOSUNNY   86  51  29 S12       30.10F HX  84
FAIRFIELD*     MOSUNNY   83  53  35 SE12      30.09F HX  82
HARRISBURG*    SUNNY     84  54  35 S12       30.11F HX  82
ROBINSON*      PTSUNNY   87  49  26 S13       30.12F HX  84
CARMI*         MOSUNNY   83  46  27 E10       30.10F HX  81
$$

ABBREVIATIONS USED IN REMARKS
   TC - TEMPERATURE IN CELSIUS
  WCI - WIND CHILL INDEX
   HX - HEAT INDEX
  VSB - VISIBILITY
$$



USA.gov is the U.S. government's official web portal to all federal, state and local government web resources and services.